DG7YEO-13 Weather Reports


time (UTC)temp
C
wind
direction
speed
KPH
gust
KPH
rain 1hr
cm
rain 24hr
cm
rain mn
cm
humidity
%
barometer
mb
20260502130205 26 208 1.6 12.9 0.00 0.00 0.00 43 1016.3
20260502123205 26 85 3.2 9.7 0.00 0.00 0.00 43 1016.6
20260502121704 26 21 1.6 14.5 0.00 0.00 0.00 42 1016.8
20260502120205 26 13 3.2 8.0 0.00 0.00 0.00 42 1016.8
20260502114705 26 5 1.6 8.0 0.00 0.00 0.00 41 1016.9
20260502113205 26 355 1.6 12.9 0.00 0.00 0.00 40 1017.1
20260502111705 26 5 1.6 6.4 0.00 0.00 0.00 40 1017.3
20260502110205 26 101 1.6 16.1 0.00 0.00 0.00 40 1017.4
20260502104705 25 89 3.2 14.5 0.00 0.00 0.00 39 1017.5
20260502103205 25 30 3.2 19.3 0.00 0.00 0.00 38 1017.8
20260502101705 25 57 3.2 12.9 0.00 0.00 0.00 37 1017.8
20260502100205 25 46 3.2 9.7 0.00 0.00 0.00 37 1017.9
20260502090205 24 39 1.6 8.0 0.00 0.00 0.00 38 1018.3
20260502070205 17 57 1.6 8.0 0.00 0.00 0.00 52 1018.8
20260502064705 16 61 1.6 4.8 0.00 0.00 0.00 55 1018.7
20260502063205 15 60 1.6 6.4 0.00 0.00 0.00 58 1018.8
20260502061705 14 62 1.6 6.4 0.00 0.00 0.00 63 1018.8
20260502060204 13 61 1.6 4.8 0.00 0.00 0.00 68 1018.9
20260502054705 11 74 0.0 4.8 0.00 0.00 0.00 74 1018.9
20260502053205 10 76 0.0 0.0 0.00 0.00 0.00 78 1018.9
20260502051705 10 76 0.0 1.6 0.00 0.00 0.00 79 1019.0
20260502050205 10 76 0.0 0.0 0.00 0.00 0.00 79 1019.2
20260502044705 10 76 0.0 0.0 0.00 0.00 0.00 78 1019.2
20260502043205 10 76 0.0 0.0 0.00 0.00 0.00 78 1019.3
20260502041704 10 76 0.0 0.0 0.00 0.00 0.00 77 1019.3
20260502040205 10 76 0.0 0.0 0.00 0.00 0.00 77 1019.4
20260502034705 10 76 0.0 0.0 0.00 0.00 0.00 76 1019.4
20260502033205 10 76 0.0 0.0 0.00 0.00 0.00 75 1019.4
20260502031704 10 76 0.0 0.0 0.00 0.00 0.00 75 1019.5
20260502030205 10 76 0.0 0.0 0.00 0.00 0.00 75 1019.6
20260502024704 11 76 0.0 0.0 0.00 0.00 0.00 73 1019.7
20260502023205 11 76 0.0 0.0 0.00 0.00 0.00 73 1019.7
20260502021704 11 76 0.0 0.0 0.00 0.00 0.00 71 1019.9
20260502020205 11 76 0.0 0.0 0.00 0.00 0.00 71 1020.0
20260502014705 11 76 0.0 0.0 0.00 0.00 0.00 70 1020.1
20260502013205 12 76 0.0 0.0 0.00 0.00 0.00 68 1020.2
20260502011705 12 76 0.0 0.0 0.00 0.00 0.00 67 1020.3
20260502010205 12 76 0.0 0.0 0.00 0.00 0.00 66 1020.5
20260502004705 13 76 0.0 0.0 0.00 0.00 0.00 64 1020.7
20260502003205 13 76 0.0 0.0 0.00 0.00 0.00 63 1020.8
20260502001705 13 76 0.0 0.0 0.00 0.00 0.00 63 1020.9
20260502000204 13 76 0.0 0.0 0.00 0.00 0.00 63 1021.1
20260501234705 13 76 0.0 0.0 0.00 0.00 0.00 63 1021.0
20260501233205 13 76 0.0 0.0 0.00 0.00 0.00 64 1021.1
20260501231705 13 76 0.0 0.0 0.00 0.00 0.00 63 1021.2
20260501230205 14 76 0.0 0.0 0.00 0.00 0.00 63 1021.3
20260501224705 14 76 0.0 0.0 0.00 0.00 0.00 63 1021.4
20260501223204 14 76 0.0 0.0 0.00 0.00 0.00 62 1021.4
20260501221705 15 76 0.0 0.0 0.00 0.00 0.00 61 1021.5
20260501220205 15 76 0.0 0.0 0.00 0.00 0.00 61 1021.5
20260501214704 15 76 0.0 0.0 0.00 0.00 0.00 61 1021.5
20260501213205 16 76 0.0 0.0 0.00 0.00 0.00 59 1021.5
20260501211705 16 76 0.0 0.0 0.00 0.00 0.00 58 1021.6
20260501210205 17 76 0.0 0.0 0.00 0.00 0.00 56 1021.6
20260501204705 17 76 0.0 0.0 0.00 0.00 0.00 54 1021.6
20260501203205 18 76 0.0 0.0 0.00 0.00 0.00 53 1021.6
20260501201705 18 76 0.0 0.0 0.00 0.00 0.00 51 1021.6
20260501200205 19 76 0.0 0.0 0.00 0.00 0.00 50 1021.6
20260501194704 19 76 0.0 1.6 0.00 0.00 0.00 48 1021.6
20260501193205 20 76 0.0 0.0 0.00 0.00 0.00 47 1021.5
20260501191705 20 76 0.0 0.0 0.00 0.00 0.00 46 1021.6
20260501190205 21 76 0.0 0.0 0.00 0.00 0.00 44 1021.6
20260501184705 22 76 0.0 1.6 0.00 0.00 0.00 42 1021.5
20260501183205 22 76 0.0 4.8 0.00 0.00 0.00 40 1021.4
20260501181705 22 105 1.6 6.4 0.00 0.00 0.00 39 1021.4
20260501180205 23 69 1.6 4.8 0.00 0.00 0.00 37 1021.4
20260501174705 23 33 1.6 11.3 0.00 0.00 0.00 36 1021.3
20260501173205 24 76 1.6 8.0 0.00 0.00 0.00 35 1021.4
20260501171705 24 105 1.6 6.4 0.00 0.00 0.00 35 1021.4
20260501170205 24 54 1.6 11.3 0.00 0.00 0.00 35 1021.5
20260501164705 24 68 3.2 12.9 0.00 0.00 0.00 35 1021.6
20260501163205 24 71 3.2 12.9 0.00 0.00 0.00 34 1021.8
20260501161705 25 53 3.2 14.5 0.00 0.00 0.00 34 1022.0
20260501160205 25 77 4.8 12.9 0.00 0.00 0.00 33 1022.1
20260501153205 25 62 4.8 16.1 0.00 0.00 0.00 34 1022.3
20260501151705 25 90 3.2 14.5 0.00 0.00 0.00 34 1022.5
20260501150206 25 38 4.8 14.5 0.00 0.00 0.00 33 1022.6
20260501144705 25 72 4.8 14.5 0.00 0.00 0.00 33 1022.8
20260501143205 24 82 4.8 16.1 0.00 0.00 0.00 34 1023.0
20260501141705 24 73 6.4 17.7 0.00 0.00 0.00 33 1023.2
20260501140205 24 70 4.8 16.1 0.00 0.00 0.00 34 1023.5
20260501134706 24 44 4.8 16.1 0.00 0.00 0.00 34 1023.7
20260501133205 24 59 4.8 11.3 0.00 0.00 0.00 33 1024.0